Simultaneous Nadir Overpasses (SNOs) Predictions

Prediction of SNOs between NOAA-19 and TERRA Satellite Orbit:

Table of predicted SNOs for the next 14.0 days since TLE Epoch: 10/5/2015
Index Date (NOAA-19) Time (NOAA-19) Lat,Lon (NOAA-19) SZA (NOAA-19 ) Date (TERRA) Time (TERRA) Lat,Lon (TERRA) SZA (TERRA ) Distance(km) Time Diff (sec)
1 10/05/2015 17:26:26 72.63, -77.00 77.49 10/05/2015 17:27:11 72.62, -76.89 77.49 3.47 45
2 10/05/2015 18:17:20 -72.48, 90.58 102.64 10/05/2015 18:16:41 -72.50, 90.51 102.63 3.10 39
3 10/07/2015 23:00:38 -72.61, 19.54 101.67 10/07/2015 23:00:59 -72.61, 19.64 101.66 3.35 21
4 10/07/2015 23:51:40 72.41,-172.82 78.17 10/07/2015 23:50:28 72.42,-173.08 78.15 8.56 72
5 10/10/2015 03:44:03 -73.09, -52.29 100.39 10/10/2015 03:45:12 -72.98, -50.73 100.42 51.78 69
6 10/10/2015 04:34:58 72.58, 116.06 79.16 10/10/2015 04:34:44 72.58, 116.13 79.16 2.56 14
7 10/12/2015 09:18:15 72.65, 45.13 80.06 10/12/2015 09:19:03 72.62, 45.13 80.05 2.71 48
8 10/12/2015 10:09:09 -72.56,-147.41 100.01 10/12/2015 10:08:32 -72.56,-147.35 100.01 2.25 37
9 10/14/2015 14:52:25 -72.60, 141.72 99.14 10/14/2015 14:52:51 -72.61, 141.65 99.14 2.45 26
10 10/14/2015 15:43:30 72.51, -50.86 80.79 10/14/2015 15:42:18 72.51, -50.88 80.78 1.12 72
11 10/16/2015 19:35:53 -73.25, 69.52 97.74 10/16/2015 19:37:01 -73.12, 71.56 97.77 67.15 68
12 10/16/2015 20:26:47 72.60,-121.82 81.69 10/16/2015 20:26:36 72.60,-121.79 81.69 1.18 11
13 10/16/2015 21:17:25 -71.72, 47.21
